Regional Weather Roundup
Issued by NWS

Home | Current Version | Previous Version | Text Only | Print | Product List | Glossary On
Versions: 1 2 3 4 5 6 7 8 9 10 11 12 13 14 15 16 17 18 19 20 21 22 23 24 25 26 27 28 29 30 31 32 33 34 35 36 37 38 39 40 41 42 43 44 45 46 47 48 49 50
000
ASUS45 KPSR 311110
RWRAZ

ARIZONA REGIONAL HOURLY WEATHER ROUNDUP
NATIONAL WEATHER SERVICE PHOENIX AZ
400 AM MST THU JUL 31 2014

NOTE: FAIR INDICATES FEW OR NO CLOUDS BELOW 12,000 FEET WITH NO
SIGNIFICANT WEATHER AND/OR OBSTRUCTIONS TO VISIBILITY.

AZZ001>003-036-311200-
NORTHWEST ARIZONA

CITY           SKY/WX    TMP DP  RH WIND       PRES   REMARKS
BULLHEAD CITY  CLEAR     97  50  20 NE9       29.81R
KINGMAN        PTCLDY    79  48  33 E8        30.03S
$$

AZZ004>008-015-016-018-311200-
NORTH CENTRAL ARIZONA

CITY           SKY/WX    TMP DP  RH WIND       PRES   REMARKS
GRAND CANYON   CLEAR     53  47  79 NE3       30.28F
PRESCOTT       MOCLDY    72  49  44 S6        30.16S
FLAGSTAFF      CLEAR     55  46  71 CALM      30.32R
PAYSON         CLEAR     72  50  46 CALM      30.19S
PAGE           CLEAR     79  48  33 NW6       30.10S
$$

AZZ009>014-017-311200-
NORTHEAST ARIZONA

CITY           SKY/WX    TMP DP  RH WIND       PRES   REMARKS
WINSLOW        PTCLDY    72  46  39 SW6       30.15R
SAINT JOHNS    PTCLDY    72  49  44 CALM      30.19F
WINDOW ROCK    MOCLDY    63  53  70 CALM      30.29R
SHOW LOW       PTCLDY    66  46  48 S7        30.29F
$$

AZZ023-311200-
GREATER PHOENIX AREA

CITY           SKY/WX    TMP DP  RH WIND       PRES   REMARKS
PHOENIX        PTCLDY    92  58  31 E6        29.84S
LUKE AFB       NOT AVBL
DEER VALLEY    CLEAR     89  57  33 E6        29.87R
SCOTTSDALE     CLEAR     89  57  33 CALM      29.89S
$$

AZZ027-028-311200-
SOUTHWEST MARICOPA COUNTY AND PINAL COUNTY

CITY           SKY/WX    TMP DP  RH WIND       PRES   REMARKS
CASA GRANDE    CLEAR     84  55  37 CALM      29.90S
$$

AZZ503-504-507>509-311200-
SOUTHEAST ARIZONA

CITY           SKY/WX    TMP DP  RH WIND       PRES   REMARKS
TUCSON         CLOUDY    83  58  42 S12       30.03R
DAVIS-MONTHAN  MOCLDY    80  61  51 S8        30.02S
NOGALES        CLOUDY    70  62  76 CALM      30.13S
SIERRA VISTA   MOCLDY    73  55  53 NW5       30.15F
SAFFORD        PTCLDY    82  53  36 S5        30.02R
$$

AZZ020-021-025-026-031-311200-
SOUTHWEST ARIZONA

CITY           SKY/WX    TMP DP  RH WIND       PRES   REMARKS
YUMA           PTCLDY    89  60  37 S9        29.77S
$$

CAZ031-033-041-043-047-048-061-311200-
SOUTHERN CALIFORNIA

CITY           SKY/WX    TMP DP  RH WIND       PRES   REMARKS
DOWNTOWN L.A.  CLEAR     68  64  87 CALM      29.90F
L.A. AIRPORT   PTCLDY    67  62  84 W3        29.91S
SAN DIEGO      MOCLDY    71  67  87 W5        29.93S
BURBANK        CLEAR     71  59  65 S3        29.91F
ONTARIO        PTCLDY    72  57  59 CALM      29.93R
RIVERSIDE      CLEAR     73  59  61 CALM      29.93S
PALM SPRINGS   CLEAR     90  55  30 SW5       29.82R
EL CENTRO NAS  CLEAR     88  49  25 SW6       29.74F
IMPERIAL       CLEAR     87  53  31 W8        29.74F
BLYTHE           N/A    N/A N/A N/A MISG      29.77R
NEEDLES        CLEAR     96  50  20 NW8       29.81R
$$

NVZ020-UTZ003-311200-
SOUTHERN NEVADA-UTAH

CITY           SKY/WX    TMP DP  RH WIND       PRES   REMARKS
LAS VEGAS      PTCLDY    87  52  29 SW8       29.90F
SALT LAKE CITY PTCLDY    64  55  72 CALM      30.17R
$$

NMZ009-TXZ055-311200-
NEW MEXICO-WEST TEXAS

CITY           SKY/WX    TMP DP  RH WIND       PRES   REMARKS
ALBUQUERQUE    MOCLDY    64  56  75 E15       30.28S
EL PASO        CLOUDY    74  61  63 E9        30.16F
$$


........................KEY........................
SKY/WX - SKY CONDITION/WEATHER
TMP    - TEMPERATURE IN FAHRENHEIT
DP     - DEW POINT IN FAHRENHEIT
RH     - RELATIVE HUMIDITY IN PERCENT
WIND   - DIRECTION AND SPEED IN MILES PER HOUR (MPH)
VRB    - VARIABLE WIND DIRECTION
PRES   - MEAN SEA LEVEL PRESSURE IN INCHES OF MERCURY
         F - FALLING PRESSURE   R - RISING PRESSURE
         S - STEADY PRESSURE
VSB    - VISIBILITY IN MILES
HX     - HEAT INDEX IN FAHRENHEIT
WCI    - WIND CHILL INDEX IN FAHRENHEIT
TC     - TEMPERATURE IN CELSIUS WHICH IS ALSO KNOWN AS
         TEMPERATURE IN CENTIGRADE
AFB    - AIR FORCE BASE
         LUKE AFB IS LUKE AIR FORCE BASE
         DAVIS-MONTHAN IS DAVIS-MONTHAN AIR FORCE BASE
NAS    - NAVAL AIR STATION
         EL CENTRO NAS IS EL CENTRO NAVAL AIR STATION
N/A    - NOT AVAILABLE


USA.gov is the U.S. government's official web portal to all federal, state and local government web resources and services.